TimeMDT,TemperatureF,Dew PointF,Humidity,Sea Level PressureIn,VisibilityMPH,Wind Direction,Wind SpeedMPH,Gust SpeedMPH,PrecipitationIn,Events,Conditions,WindDirDegrees,DateUTC
12:53 AM,39.0,17.1,41,30.16,10.0,WSW,8.1,-,N/A,,Clear,250,2013-10-19 06:53:00
1:53 AM,36.0,17.1,46,30.16,10.0,WSW,5.8,-,N/A,,Clear,250,2013-10-19 07:53:00
2:53 AM,32.0,17.1,54,30.18,10.0,NNE,4.6,-,N/A,,Clear,30,2013-10-19 08:53:00
3:53 AM,28.9,15.1,56,30.19,10.0,ENE,4.6,-,N/A,,Clear,70,2013-10-19 09:53:00
4:53 AM,28.0,15.1,58,30.20,10.0,ENE,3.5,-,N/A,,Clear,70,2013-10-19 10:53:00
5:53 AM,28.9,16.0,58,30.22,10.0,East,6.9,-,N/A,,Clear,90,2013-10-19 11:53:00
6:53 AM,28.0,15.1,58,30.24,10.0,ENE,5.8,-,N/A,,Clear,70,2013-10-19 12:53:00
7:53 AM,27.0,15.1,61,30.27,10.0,NE,3.5,-,N/A,,Clear,40,2013-10-19 13:53:00
8:53 AM,34.0,16.0,48,30.28,10.0,East,5.8,-,N/A,,Clear,90,2013-10-19 14:53:00
9:53 AM,39.0,17.1,41,30.26,10.0,SE,5.8,-,N/A,,Clear,130,2013-10-19 15:53:00
10:53 AM,44.1,16.0,32,30.25,10.0,Calm,Calm,-,N/A,,Clear,0,2013-10-19 16:53:00
11:53 AM,48.9,16.0,27,30.21,10.0,Calm,Calm,-,N/A,,Clear,0,2013-10-19 17:53:00
12:53 PM,54.0,17.1,23,30.17,10.0,West,10.4,-,N/A,,Clear,280,2013-10-19 18:53:00
1:53 PM,57.9,17.1,20,30.14,10.0,West,13.8,20.7,N/A,,Clear,280,2013-10-19 19:53:00
2:53 PM,57.9,16.0,19,30.13,10.0,West,13.8,23.0,N/A,,Clear,280,2013-10-19 20:53:00
3:53 PM,60.1,15.1,17,30.11,10.0,West,17.3,21.9,N/A,,Clear,280,2013-10-19 21:53:00
4:53 PM,60.1,16.0,18,30.09,10.0,WNW,18.4,-,N/A,,Clear,290,2013-10-19 22:53:00
5:53 PM,57.9,16.0,19,30.09,10.0,WNW,15.0,-,N/A,,Clear,290,2013-10-19 23:53:00
6:53 PM,54.0,17.1,23,30.11,10.0,West,9.2,-,N/A,,Clear,270,2013-10-20 00:53:00
7:53 PM,53.1,18.0,25,30.12,10.0,West,11.5,-,N/A,,Clear,270,2013-10-20 01:53:00
8:53 PM,50.0,18.0,28,30.10,10.0,West,8.1,-,N/A,,Clear,270,2013-10-20 02:53:00
9:53 PM,48.0,18.0,30,30.09,10.0,West,3.5,-,N/A,,Clear,280,2013-10-20 03:53:00
10:53 PM,46.9,17.1,30,30.08,10.0,West,3.5,-,N/A,,Clear,270,2013-10-20 04:53:00
11:53 PM,44.1,18.0,35,30.07,10.0,WNW,4.6,-,N/A,,Clear,300,2013-10-20 05:53:00